SCP
0 0 0 0 0 0 0 0 0 0 0 0 0 0 0 0 0 0 0 0 0 0 0 0 0 0 0 0 0 0 0 0 0 0 0 0 0 0 0 0 0 0 0 0 0 0 0 0 0 0 0 0 0 0
0 0 0 0 0 0 0 0 0 0 0 0 0 0 0 0 0 0 0 0 0 0 0 0 0 0 0 0 0 0 0 0 0 0 0 0 0 0 0 0 0 0 0 0 0 0 0 0 0 0 0 0 0 0
0 0 0 0 0 0 0 0 0 0 0 0 0 0 0 0 0 0 0 0 0 0 0 0 0 0 0 0 0 0 0 0 0 0 0 0 0 0 0 0 0 0 0 0 0 0 0 0 0 0 0 0 0 0
0 0 0 0 0 0 0 0 0 0 0 0 0 0 0 0 0 0 0 0 0 0 0 0 0 0 0 0 0 0 0 0 0 0 0 0 0 0 0 0 0 0 0 0 0 0 0 0 0 0 0 0 0 0
0 0 0 0 0 0 0 0 0 0 0 0 0 0 0 0 0 0 0 0 0 0 0 0 0 0 0 0 0 0 0 0 0 0 0 0 0 0 0 0 0 0 0 0 0 0 0 0 0 0 0 0 0 0
0 0 0 0 0 0 0 0 0 0 0 0 0 0 0 0 0 0 0 0 0 0 0 0 0 0 0 0 0 0 0 0 0 0 0 0 0 0 0 0 0 0 0 0 0 0 0 0 0 0 0 0 0 0
0 0 0 0 0 0 0 0 0 0 0 0 0 0 0 0 0 0 0 0 0 0 0 0 0 0 0 0 0 0 0 0 0 0 0 0 0 0 0 0 0 0 0 0 0 0 0 0 0 0 0 0 0 0
-0 0 0 0 0 0 0 0 0 0 0 0 0 0 0 0 0 0 0 0 0 0 0 0 0 0 0 0 0 0 0 0 0 0 0 0 0 0 0 0 0 0 0 0 0 0 0 0 0 0 0 0 0 0
-0 0 0 0 0 0 0 0 0 0 0 0 0 0 0 0 0 0 0 0 0 0 0 0 0 0 0 0 0 0 0 0 0 0 0 0 0 0 0 0 0 0 0 0 0 0 0 0 0 0 0 0 0 0
-0 -0 0 0 0 0 0 0 0 0 0 0 0 0 0 0 0 0 0 0 0 0 0 0 0 0 0 0 0 0 0 0 0 0 0 0 0 0 0 0 0 0 0 0 0 0 0 0 0 0 0 0 0 0
0 -0 0 0 0 0 0 0 0 0 0 0 0 0 0 0 0 0 0 0 0 0 0 0 0 0 0 0 0 0 0 0 0 0 0 0 0 0 0 0 0 0 0 0 0 0 0 0 0 0 0 0 0 0
0 0 0 0 0 0 0 0 0 0 0 0 0 0 0 0 0 0 0 0 0 0 0 0 0 0 0 0 0 0 0 0 0 0 0 0 0 0 0 0 0 0 0 0 0 0 0 0 0 0 0 0 0 0
0 0 0 0 0 0 0 0 0 0 0 0 0 0 0 0 0 0 0 0 0 0 0 0 0 0 0 0 0 0 0 0 0 0 0 0 0 0 0 0 0 0 0 0 0 0 0 0 0 0 0 0 0 0
0 0 0 0 0 0 0 0 0 0 0 0 0 0 0 0 0 0 0 0 0 0 0 0 0 0 0 0 0 0 0 0 0 0 0 0 0 0 0 0 0 0 0 0 0 0 0 0 0 0 0 0 0 0
0 0 0 0 0 -0 -0 0 0 0 0 0 0 0 0 0 0 0 0 0 0 0 0 0 0 0 0 0 0 0 0 0 0 0 0 0 0 0 0 0 0 0 0 0 0 0 0 0 0 0 0 0 0 0
0 0 0 0 0 -0 0 0 0 0 0 0 0 0 0 0 0 0 0 0 0 0 0 0 0 0 0 0 0 0 0 0 0 0 0 0 0 0 0 0 0 0 0 0 0 0 0 0 0 0 0 0 0 0
0 0 0 0 0 0 -0 0 0 0 0 0 0 0 0 0 0 0 0 0 0 0 0 0 0 0 0 0 0 0 0 0 0 0 0 0 0 0 0 0 0 0 0 0 0 0 0 0 0 0 0 0 0 0
0 0 0 0 0 0 0 0 0 0 0 0 0 0 0 0 0 0 0 0 0 0 0 0 0 0 0 0 0 0 0 0 0 0 0 0 0 0 0 0 0 0 0 0 0 0 0 0 0 0 0 0 0 0
0 0 0 0 0 0 0 0 0 0 0 0 0 0 0 0 0 0 0 0 0 0 0 0 0 0 0 0 0 0 0 0 0 0 0 0 0 0 0 0 0 0 0 0 0 0 0 0 0 0 0 0 0 0
0 0 0 0 0 0 0 0 0 0 0 0 0 0 0 0 0 0 0 0 0 0 0 0 0 0 0 0 0 0 0 0 0 0 0 0 0 0 0 0 0 0 0 0 0 0 0 0 0 0 0 0 0 0
0 0 0 0 0 -0 -0 0 0 0 0 0 0 0 0 0 0 0 0 0 0 0 0 0 0 0 0 0 0 0 0 0 0 0 0 0 0 0 0 0 0 0 0 0 0 0 0 0 0 0 0 0 0 0
0 -0 0 -0 0 0 0 0 0 0 -0 0 0 0 0 0 0 0 0 0 0 0 0 0 0 0 0 0 0 0 0 0 0 0 0 0 0 0 0 0 0 0 0 0 0 0 0 0 0 0 0 0 0 0
0 -0 0 -0 0 -0 0 0 0 0 0 0 0 0 0 0 0 0 0 0 0 0 0 0 0 0 0 0 0 0 0 0 0 0 0 0 0 0 0 0 0 0 0 0 0 0 0 0 0 0 0 0 0 0
-0 0 0 0 -0 -0 -0 -0 -0 -0 -0 -0 0 0 0 0 0 0 0 0 0 0 0 0 0 0 0 0 0 0 0 0 0 0 0 0 0 0 0 0 0 0 0 0 0 0 0 0 0 0 0 0 0 0
0 -0 -0 -0 -0 -0 -0 0 -0 -0 -0 -0 0 0 0 0 0 0 0 0 0 0 0 0 0 0 0 -0 0 0 0 0 0 0 0 0 0 0 0 0 0 0 0 0 0 0 0 0 0 0 0 0 0 0
-0 -0 0 0 -0 -0 0 0 0 0 0 0 0 0 0 0 0 0 0 0 0 0 0 0 0 0 0 0 0 0 -0 -0 -0 -0 -0 0 0 0 0 0 0 0 0 0 0 0 0 0 0 0 0 0 0 0
-0 0 0 0 0 0 0 0 0 0 0 0 0 0 0 0 0 0 0 0 0 0 0 0 0 0 0 0 0 0 0 0 0 0 0 0 0 0 0 0 0 0 0 0 0 0 0 0 0 0 0 0 0 0
0 0 -0 0 0 0 -0 0 0 0 0 0 0 0 0 0 0 0 0 0 0 0 0 0 0 0 0 0 0 0 0 0 0 0 0 0 0 0 0 0 0 0 0 0 0 0 0 0 0 0 0 0 0 0
0 0 0 0 0 -0 0 -0 -0 0 0 0 0 0 0 0 0 0 0 0 0 0 0 0 0 0 0 0 0 0 0 0 0 0 0 0 0 0 0 0 0 0 0 0 0 0 0 0 0 0 0 0 0 0
0 0 0 0 0 0 0 0 0 0 0 0 0 0 0 0 0 0 0 0 0 0 0 0 0 0 0 0 0 0 0 0 0 0 0 0 0 0 0 0 0 0 0 0 0 0 0 0 0 0 0 0 0 0
0 0 0 0 0 0 0 0 0 0 0 0 0 0 0 -0 -0 0 0 0 0 0 0 0 0 0 0 0 0 0 0 0 0 0 0 0 0 0 0 0 0 0 0 0 0 0 0 0 0 0 0 0 0 0
0 0 0 0 0 0 0 0 0 0 0 0 0 0 0 0 0 0 0 0 0 0 0 0 0 0 0 0 0 0 0 0 0 0 0 0 0 0 0 0 0 0 0 0 0 0 0 0 0 0 0 0 0 0
0 0 0 0 0 0 0 0 0 0 0 0 0 0 0 0 0 0 0 0 0 0 0 0 0 0 0 0 0 0 0 0 0 0 0 0 0 0 0 0 0 0 0 0 0 0 0 0 0 0 0 0 0 0
Wind_Speed_500mb
16 11 9 9 11 23 25 22 24 26 25 23 19 15 18 24 15 20 23 11 9 10 15 10 10 9 14 13 7 13 12 2 3 6 10 7 7 12 8 9 16 16 13 8 6 1 30 12 10 32 10 4 1 7
12 11 6 7 9 9 17 20 26 34 30 23 20 18 16 18 19 16 25 19 14 11 15 21 21 18 14 13 29 9 5 8 8 8 4 5 4 3 9 10 2 10 12 13 20 15 5 23 5 7 2 5 1 5
4 4 3 8 12 13 14 19 16 24 31 26 22 20 18 19 20 18 19 18 17 18 17 14 13 19 17 16 16 9 5 7 10 7 5 4 4 1 8 10 7 6 4 7 7 3 5 17 8 9 6 6 5 5
6 6 7 6 15 14 14 20 23 25 26 28 27 24 21 17 18 18 20 21 16 14 6 4 13 16 18 18 8 10 29 20 23 14 6 4 5 3 3 2 3 4 8 9 8 1 4 7 11 10 8 3 6 12
8 9 12 11 12 14 16 17 17 21 22 23 30 27 28 20 20 23 25 23 16 7 8 8 13 9 14 16 17 15 29 36 29 8 3 2 4 5 2 3 3 10 7 5 3 2 4 5 11 16 5 3 5 13
15 6 10 16 13 10 15 16 15 19 24 27 25 29 30 27 24 26 9 19 25 20 8 5 5 6 12 16 20 19 19 17 9 9 4 4 12 9 4 5 10 21 17 10 11 12 7 9 6 8 15 16 8 17
18 16 12 8 13 9 10 14 20 12 19 26 25 32 34 31 27 14 9 17 29 16 6 5 5 6 18 19 12 10 11 5 5 6 5 8 5 10 5 6 8 10 14 14 18 26 16 20 11 19 21 22 17 11
10 12 11 11 10 9 12 14 17 20 26 27 28 29 33 35 26 17 14 30 30 15 6 6 2 3 13 7 6 8 8 7 4 5 5 3 8 5 4 13 13 14 23 19 15 9 13 13 10 9 9 8 13 15
7 9 11 15 11 9 11 14 17 24 31 30 34 34 31 21 11 17 24 25 29 8 10 6 9 7 19 7 9 7 6 4 1 3 3 7 2 7 11 18 22 27 14 21 20 15 4 6 8 13 16 15 18 19
11 8 11 11 9 9 9 13 15 15 31 35 35 9 9 14 29 25 6 4 7 11 6 4 12 6 15 5 5 7 3 5 6 7 9 4 7 20 9 7 12 17 13 8 12 9 8 10 12 16 17 16 17 21
19 13 12 7 5 7 5 12 19 13 21 33 11 7 33 35 10 7 6 5 2 0 10 11 10 9 9 6 5 3 5 0 5 8 8 4 7 8 27 33 29 21 16 14 17 22 25 27 28 28 26 27 29 32
22 15 8 6 4 2 2 6 11 20 5 16 22 37 31 7 6 9 1 6 2 8 6 8 10 12 12 10 7 5 6 4 6 5 5 6 7 2 10 13 13 18 25 29 29 28 29 29 29 30 32 33 33 33
12 12 10 10 13 12 16 21 28 24 19 34 13 14 9 2 12 10 8 7 4 6 13 12 5 9 9 6 10 6 6 6 4 2 7 7 3 15 22 21 16 12 12 15 16 17 19 21 23 25 26 28 31 32
13 7 6 14 22 28 34 36 42 39 42 9 9 9 9 4 7 9 10 9 7 11 28 27 12 5 6 6 4 9 5 6 5 1 11 5 9 17 16 14 13 8 9 13 15 15 17 20 20 22 24 26 26 27
12 3 7 18 23 26 24 32 63 77 13 7 8 8 6 6 6 5 7 4 3 25 40 18 11 7 2 6 4 7 6 6 10 10 7 1 13 14 11 8 8 7 10 12 13 12 10 11 14 15 16 19 22 25
4 6 15 21 14 11 64 82 69 34 7 7 10 8 4 5 7 5 5 6 11 24 15 7 5 5 3 7 6 9 13 12 8 5 5 10 11 9 6 5 4 5 7 9 13 15 18 21 22 22 24 27 29 30
10 11 18 11 9 37 54 50 31 11 8 7 7 17 15 16 7 6 4 4 12 9 4 5 8 11 3 5 1 7 10 6 4 7 11 12 9 7 7 9 12 16 21 24 26 28 29 30 30 31 31 31 33 36
10 14 11 10 25 31 29 15 10 10 13 15 6 7 14 13 11 9 6 7 6 4 5 6 11 6 9 11 7 3 4 5 6 6 2 4 4 4 7 10 12 16 21 25 27 28 29 31 34 37 40 42 42 44
7 4 8 22 17 11 8 11 11 11 10 8 9 12 9 12 18 11 6 7 9 10 10 4 8 4 4 3 2 5 6 5 4 10 11 6 5 8 12 15 17 20 22 24 27 29 31 33 35 38 42 46 50 51
12 13 24 16 8 8 10 12 12 13 8 7 8 9 10 10 11 15 12 7 8 6 13 8 2 1 1 2 3 5 6 8 11 10 9 11 12 15 18 18 19 21 22 22 26 28 31 35 40 45 48 51 54 54
22 24 18 9 15 20 14 10 13 10 8 8 8 9 8 10 10 12 12 12 10 11 3 6 4 6 5 6 5 8 8 10 12 13 17 17 18 25 24 22 22 21 21 22 23 26 30 33 35 39 42 45 46 46
19 18 13 15 12 12 16 18 10 6 6 7 9 10 11 8 12 16 14 19 11 9 7 11 10 9 9 9 10 9 9 11 13 15 18 22 24 22 22 24 21 21 19 18 18 17 17 19 23 26 29 30 31 30
9 10 13 16 10 14 8 12 7 10 6 5 4 5 7 7 10 13 11 9 6 14 15 15 14 13 10 7 7 10 12 14 16 17 18 20 22 22 22 20 19 18 15 18 16 16 17 20 20 20 21 22 22 21
11 12 17 15 23 5 7 11 9 9 8 7 6 5 7 11 15 10 3 5 10 13 15 15 15 13 11 9 9 9 12 14 15 17 17 18 19 19 21 20 19 18 16 16 17 17 18 18 18 18 19 20 21 21
10 27 17 15 17 14 13 10 10 8 6 5 4 6 7 11 4 5 1 2 10 12 16 19 18 16 14 12 13 15 16 18 20 17 16 18 18 16 17 20 20 20 19 18 21 22 22 21 20 20 20 20 20 21
16 26 15 12 12 10 6 7 8 6 5 7 3 10 7 2 6 1 3 11 14 21 24 23 21 16 16 19 19 17 19 22 24 24 21 18 21 26 25 24 21 21 21 22 24 24 24 23 23 24 23 24 25 27
12 10 14 19 10 7 6 4 2 5 8 7 6 10 5 6 3 4 10 13 22 26 25 24 24 23 22 18 20 24 25 26 28 26 24 26 28 29 28 27 26 25 27 27 27 27 25 25 26 27 27 26 27 29
11 19 5 20 10 11 4 4 5 4 4 5 7 7 3 5 4 10 9 19 21 21 21 21 20 21 21 21 21 20 20 23 24 26 24 23 22 21 22 24 25 25 26 26 27 27 27 27 28 29 30 30 29 32
11 25 17 10 7 8 8 3 2 5 10 5 2 4 6 5 7 11 16 20 20 22 22 20 22 22 22 22 22 21 21 21 23 21 21 22 21 19 21 21 21 21 22 23 25 26 27 29 31 33 32 33 32 33
13 27 9 9 4 4 5 10 11 17 13 10 11 10 10 6 5 11 14 19 23 24 24 25 25 24 23 23 20 20 23 22 19 20 20 18 20 21 23 24 25 26 29 29 29 29 32 35 35 38 41 41 39 40
15 17 8 4 4 4 16 18 16 13 8 6 9 10 11 11 8 7 18 21 23 30 25 24 25 28 28 28 29 29 23 23 23 25 27 27 27 28 29 31 32 33 34 35 36 37 39 41 42 45 46 48 47 49
12 10 10 5 3 10 12 16 10 7 6 6 6 9 9 8 7 8 19 22 23 28 26 27 26 25 27 26 27 29 29 28 29 32 35 35 34 33 35 37 38 40 42 43 43 44 45 48 50 49 51 51 50 50
9 11 7 8 7 4 9 20 4 8 7 5 5 6 7 7 6 9 25 23 31 29 26 24 25 27 29 30 32 29 29 31 32 33 34 37 37 37 38 38 39 41 45 46 47 47 49 50 53 53 54 56 57 58
Wind_Direction_500mb
67 81 82 98 139 175 170 173 180 168 165 165 158 156 168 180 172 166 168 123 88 100 112 120 116 104 84 90 137 156 110 40 78 163 161 173 201 207 125 156 168 156 151 188 100 141 259 149 107 166 226 33 158 224
64 67 107 131 137 162 170 161 179 173 165 163 154 156 158 159 179 170 166 168 107 112 123 109 114 132 136 105 125 126 51 95 130 175 146 119 174 169 164 212 286 177 187 174 185 213 220 193 26 184 107 105 96 290
56 64 68 172 170 175 186 191 173 172 165 172 167 160 165 162 162 174 165 152 138 95 102 121 113 121 126 150 151 116 103 114 93 97 119 127 118 123 183 232 97 249 207 179 107 204 181 199 211 197 159 125 65 6
192 133 98 136 177 179 176 184 186 183 187 185 182 175 166 170 155 155 157 150 137 119 104 92 151 139 129 113 134 170 152 137 108 68 70 118 157 103 359 69 150 211 138 167 280 218 63 78 219 213 168 236 323 326
125 130 87 103 146 173 180 183 183 189 178 187 194 190 178 187 167 156 154 151 151 107 137 121 137 128 155 135 96 128 161 149 138 115 88 144 96 110 29 41 251 197 171 185 170 69 104 145 67 67 75 84 18 341
77 105 83 82 100 132 163 158 163 183 193 186 179 185 178 180 173 156 124 178 163 119 102 84 110 94 157 155 160 138 136 131 133 130 144 141 165 155 135 202 253 204 196 186 177 170 189 107 29 26 281 266 278 323
56 72 84 109 74 96 132 169 167 165 189 173 167 168 174 167 168 159 141 168 171 152 92 77 14 94 135 144 137 158 165 107 79 100 97 143 144 164 106 185 248 236 195 149 138 159 177 189 200 229 235 245 268 280
76 52 71 129 109 91 115 138 177 134 134 142 156 147 147 152 155 148 118 150 154 128 105 102 50 68 153 114 106 120 111 118 91 98 119 128 130 114 258 243 212 176 176 188 186 180 133 119 107 96 89 49 24 17
112 82 76 91 105 116 123 123 150 161 137 129 129 133 125 138 108 134 144 158 172 134 137 111 144 204 165 122 122 112 129 55 78 99 248 147 280 220 220 218 201 168 143 167 169 155 124 335 340 345 338 338 342 339
173 134 105 81 64 90 139 145 130 151 152 141 135 99 94 124 127 120 106 64 134 193 177 141 142 155 162 103 60 97 66 145 166 244 145 116 252 239 222 215 222 216 250 227 198 238 275 288 305 308 305 306 302 303
182 171 139 82 84 78 127 180 162 169 154 153 129 78 129 125 86 61 72 72 42 2 196 178 159 132 157 111 154 126 160 26 127 252 148 260 262 244 233 235 228 221 217 225 254 273 280 283 284 281 276 276 278 281
172 186 186 226 270 332 344 231 207 192 123 139 134 132 126 122 76 86 304 333 84 225 173 138 138 122 138 148 106 158 134 58 213 167 134 264 247 280 119 155 195 220 230 238 246 251 255 262 269 275 281 285 287 287
113 177 226 271 293 294 276 251 206 197 187 135 114 144 151 96 48 121 205 290 292 192 175 160 104 115 121 115 74 89 95 205 102 94 219 229 289 136 124 127 125 140 173 203 221 235 245 257 269 278 287 294 297 299
185 208 269 299 307 305 286 249 217 190 187 148 145 131 138 201 231 181 186 188 206 189 164 141 105 122 118 71 140 105 237 73 70 82 236 244 164 159 141 152 172 182 213 226 232 243 263 279 288 292 297 299 299 298
137 142 334 331 336 325 330 191 178 168 165 148 134 138 186 172 108 104 187 167 176 157 153 111 86 123 106 109 84 103 54 202 199 220 228 340 160 175 178 165 172 212 241 235 224 219 223 256 269 278 289 297 303 307
96 4 352 359 4 50 113 129 136 143 76 80 60 99 83 80 1 70 71 121 141 159 129 119 117 104 138 124 101 204 131 206 233 213 133 149 145 148 148 151 162 212 240 263 277 277 273 273 276 287 294 298 300 300
33 5 1 39 46 95 129 123 119 65 66 72 33 64 83 83 91 25 49 79 155 163 153 108 94 201 89 74 186 185 195 221 52 103 118 138 151 177 203 226 246 260 269 273 276 277 279 281 283 284 285 288 293 297
355 349 22 101 115 104 107 91 89 77 58 39 66 23 66 72 67 41 33 83 155 114 111 170 123 94 164 158 261 239 91 94 114 122 42 133 167 208 243 260 264 265 268 272 273 274 276 278 282 286 288 290 294 296
56 78 109 128 110 86 77 48 45 92 72 68 59 55 67 74 66 49 64 96 93 106 110 69 78 181 214 330 303 8 15 7 280 255 280 260 271 311 309 300 292 287 283 282 282 285 287 289 291 291 292 294 295 297
75 113 124 108 72 67 73 46 49 68 60 54 32 39 54 56 64 59 59 96 103 74 47 40 83 180 219 320 311 309 332 328 322 314 270 266 269 288 298 297 297 295 291 292 294 293 293 295 298 299 298 296 295 295
97 104 110 76 50 58 75 54 61 64 83 82 43 45 51 49 48 43 25 33 60 41 66 54 29 347 324 332 325 320 308 301 303 297 293 281 277 292 293 295 295 294 293 295 295 297 302 304 305 302 300 297 295 294
83 78 65 49 64 66 64 42 63 57 58 65 43 33 39 32 19 5 5 44 57 33 18 348 340 324 305 296 292 300 308 313 313 309 304 302 300 290 288 292 288 287 290 297 303 309 320 330 332 331 325 316 308 301
57 42 54 39 73 50 44 37 55 29 63 25 47 54 33 18 6 2 66 50 57 13 2 358 348 332 310 290 281 283 285 291 297 297 297 298 300 296 293 292 289 289 297 305 314 322 325 322 317 314 317 317 313 311
64 51 31 40 29 37 23 34 36 33 51 32 36 28 358 344 354 53 52 15 2 352 355 353 351 340 334 313 292 295 299 300 306 303 297 295 300 292 288 286 288 293 299 306 307 306 299 298 304 312 314 311 308 306
64 12 23 6 16 25 27 12 1 28 47 335 53 17 348 344 58 60 163 316 335 340 341 342 338 336 330 320 317 316 305 303 305 305 298 288 292 291 288 288 288 291 296 303 301 296 298 300 302 302 300 299 298 296
64 16 34 353 359 40 327 23 20 355 338 20 356 311 320 1 61 325 262 338 350 348 340 336 333 321 309 305 305 307 304 306 306 305 302 294 294 300 297 291 291 293 293 298 301 299 295 296 295 291 290 290 290 290
53 346 13 23 7 344 26 19 3 51 40 20 327 343 7 59 331 298 331 349 341 340 337 331 328 322 317 311 303 304 303 301 302 303 298 295 293 292 290 293 292 292 296 298 298 298 298 296 292 292 292 290 289 289
67 26 29 341 16 21 114 38 38 30 281 331 302 7 105 183 243 337 337 340 341 343 341 336 331 324 319 315 312 306 303 304 305 305 304 298 294 291 289 290 292 292 291 288 288 291 294 296 296 294 294 294 293 291
25 356 354 357 4 29 41 79 316 1 337 318 152 274 272 271 333 355 357 357 354 351 348 346 342 341 336 336 329 323 318 313 310 309 305 301 297 296 299 297 295 295 295 294 292 292 291 289 288 290 290 290 290 286
2 356 7 6 48 350 355 354 339 329 322 300 294 295 291 281 346 359 1 1 2 352 344 341 337 335 332 327 325 321 321 318 312 312 316 315 309 304 300 297 295 293 292 292 290 287 287 289 289 290 293 294 293 292
347 351 326 315 275 340 339 333 332 328 318 301 297 285 294 303 267 291 351 348 347 351 346 341 337 331 333 331 328 324 321 312 312 308 305 304 301 298 295 294 293 292 291 290 290 290 289 288 289 290 290 291 293 293
332 345 345 328 319 325 335 344 319 314 300 302 298 317 320 304 287 317 340 343 343 342 339 337 339 338 333 330 326 323 321 318 311 308 308 307 306 303 298 296 294 292 292 291 291 291 291 291 292 292 293 293 294 294
309 332 323 307 304 326 333 339 321 327 264 267 273 298 316 301 282 330 336 337 343 345 344 339 336 335 331 329 329 323 320 320 318 314 311 308 307 305 301 299 296 293 292 293 294 293 293 293 293 294 294 294 295 295
Wind_Speed_850mb
16 11 9 9 11 23 25 22 24 26 25 23 19 15 18 24 15 20 23 11 9 10 15 10 10 9 14 13 7 13 12 2 3 6 10 7 7 12 8 9 16 16 13 8 6 1 30 12 10 32 10 4 1 7
12 11 6 7 9 9 17 20 26 34 30 23 20 18 16 18 19 16 25 19 14 11 15 21 21 18 14 13 29 9 5 8 8 8 4 5 4 3 9 10 2 10 12 13 20 15 5 23 5 7 2 5 1 5
4 4 3 8 12 13 14 19 16 24 31 26 22 20 18 19 20 18 19 18 17 18 17 14 13 19 17 16 16 9 5 7 10 7 5 4 4 1 8 10 7 6 4 7 7 3 5 17 8 9 6 6 5 5
6 6 7 6 15 14 14 20 23 25 26 28 27 24 21 17 18 18 20 21 16 14 6 4 13 16 18 18 8 10 29 20 23 14 6 4 5 3 3 2 3 4 8 9 8 1 4 7 11 10 8 3 6 12
8 9 12 11 12 14 16 17 17 21 22 23 30 27 28 20 20 23 25 23 16 7 8 8 13 9 14 16 17 15 29 36 29 8 3 2 4 5 2 3 3 10 7 5 3 2 4 5 11 16 5 3 5 13
15 6 10 16 13 10 15 16 15 19 24 27 25 29 30 27 24 26 9 19 25 20 8 5 5 6 12 16 20 19 19 17 9 9 4 4 12 9 4 5 10 21 17 10 11 12 7 9 6 8 15 16 8 17
18 16 12 8 13 9 10 14 20 12 19 26 25 32 34 31 27 14 9 17 29 16 6 5 5 6 18 19 12 10 11 5 5 6 5 8 5 10 5 6 8 10 14 14 18 26 16 20 11 19 21 22 17 11
10 12 11 11 10 9 12 14 17 20 26 27 28 29 33 35 26 17 14 30 30 15 6 6 2 3 13 7 6 8 8 7 4 5 5 3 8 5 4 13 13 14 23 19 15 9 13 13 10 9 9 8 13 15
7 9 11 15 11 9 11 14 17 24 31 30 34 34 31 21 11 17 24 25 29 8 10 6 9 7 19 7 9 7 6 4 1 3 3 7 2 7 11 18 22 27 14 21 20 15 4 6 8 13 16 15 18 19
11 8 11 11 9 9 9 13 15 15 31 35 35 9 9 14 29 25 6 4 7 11 6 4 12 6 15 5 5 7 3 5 6 7 9 4 7 20 9 7 12 17 13 8 12 9 8 10 12 16 17 16 17 21
19 13 12 7 5 7 5 12 19 13 21 33 11 7 33 35 10 7 6 5 2 0 10 11 10 9 9 6 5 3 5 0 5 8 8 4 7 8 27 33 29 21 16 14 17 22 25 27 28 28 26 27 29 32
22 15 8 6 4 2 2 6 11 20 5 16 22 37 31 7 6 9 1 6 2 8 6 8 10 12 12 10 7 5 6 4 6 5 5 6 7 2 10 13 13 18 25 29 29 28 29 29 29 30 32 33 33 33
12 12 10 10 13 12 16 21 28 24 19 34 13 14 9 2 12 10 8 7 4 6 13 12 5 9 9 6 10 6 6 6 4 2 7 7 3 15 22 21 16 12 12 15 16 17 19 21 23 25 26 28 31 32
13 7 6 14 22 28 34 36 42 39 42 9 9 9 9 4 7 9 10 9 7 11 28 27 12 5 6 6 4 9 5 6 5 1 11 5 9 17 16 14 13 8 9 13 15 15 17 20 20 22 24 26 26 27
12 3 7 18 23 26 24 32 63 77 13 7 8 8 6 6 6 5 7 4 3 25 40 18 11 7 2 6 4 7 6 6 10 10 7 1 13 14 11 8 8 7 10 12 13 12 10 11 14 15 16 19 22 25
4 6 15 21 14 11 64 82 69 34 7 7 10 8 4 5 7 5 5 6 11 24 15 7 5 5 3 7 6 9 13 12 8 5 5 10 11 9 6 5 4 5 7 9 13 15 18 21 22 22 24 27 29 30
10 11 18 11 9 37 54 50 31 11 8 7 7 17 15 16 7 6 4 4 12 9 4 5 8 11 3 5 1 7 10 6 4 7 11 12 9 7 7 9 12 16 21 24 26 28 29 30 30 31 31 31 33 36
10 14 11 10 25 31 29 15 10 10 13 15 6 7 14 13 11 9 6 7 6 4 5 6 11 6 9 11 7 3 4 5 6 6 2 4 4 4 7 10 12 16 21 25 27 28 29 31 34 37 40 42 42 44
7 4 8 22 17 11 8 11 11 11 10 8 9 12 9 12 18 11 6 7 9 10 10 4 8 4 4 3 2 5 6 5 4 10 11 6 5 8 12 15 17 20 22 24 27 29 31 33 35 38 42 46 50 51
12 13 24 16 8 8 10 12 12 13 8 7 8 9 10 10 11 15 12 7 8 6 13 8 2 1 1 2 3 5 6 8 11 10 9 11 12 15 18 18 19 21 22 22 26 28 31 35 40 45 48 51 54 54
22 24 18 9 15 20 14 10 13 10 8 8 8 9 8 10 10 12 12 12 10 11 3 6 4 6 5 6 5 8 8 10 12 13 17 17 18 25 24 22 22 21 21 22 23 26 30 33 35 39 42 45 46 46
19 18 13 15 12 12 16 18 10 6 6 7 9 10 11 8 12 16 14 19 11 9 7 11 10 9 9 9 10 9 9 11 13 15 18 22 24 22 22 24 21 21 19 18 18 17 17 19 23 26 29 30 31 30
9 10 13 16 10 14 8 12 7 10 6 5 4 5 7 7 10 13 11 9 6 14 15 15 14 13 10 7 7 10 12 14 16 17 18 20 22 22 22 20 19 18 15 18 16 16 17 20 20 20 21 22 22 21
11 12 17 15 23 5 7 11 9 9 8 7 6 5 7 11 15 10 3 5 10 13 15 15 15 13 11 9 9 9 12 14 15 17 17 18 19 19 21 20 19 18 16 16 17 17 18 18 18 18 19 20 21 21
10 27 17 15 17 14 13 10 10 8 6 5 4 6 7 11 4 5 1 2 10 12 16 19 18 16 14 12 13 15 16 18 20 17 16 18 18 16 17 20 20 20 19 18 21 22 22 21 20 20 20 20 20 21
16 26 15 12 12 10 6 7 8 6 5 7 3 10 7 2 6 1 3 11 14 21 24 23 21 16 16 19 19 17 19 22 24 24 21 18 21 26 25 24 21 21 21 22 24 24 24 23 23 24 23 24 25 27
12 10 14 19 10 7 6 4 2 5 8 7 6 10 5 6 3 4 10 13 22 26 25 24 24 23 22 18 20 24 25 26 28 26 24 26 28 29 28 27 26 25 27 27 27 27 25 25 26 27 27 26 27 29
11 19 5 20 10 11 4 4 5 4 4 5 7 7 3 5 4 10 9 19 21 21 21 21 20 21 21 21 21 20 20 23 24 26 24 23 22 21 22 24 25 25 26 26 27 27 27 27 28 29 30 30 29 32
11 25 17 10 7 8 8 3 2 5 10 5 2 4 6 5 7 11 16 20 20 22 22 20 22 22 22 22 22 21 21 21 23 21 21 22 21 19 21 21 21 21 22 23 25 26 27 29 31 33 32 33 32 33
13 27 9 9 4 4 5 10 11 17 13 10 11 10 10 6 5 11 14 19 23 24 24 25 25 24 23 23 20 20 23 22 19 20 20 18 20 21 23 24 25 26 29 29 29 29 32 35 35 38 41 41 39 40
15 17 8 4 4 4 16 18 16 13 8 6 9 10 11 11 8 7 18 21 23 30 25 24 25 28 28 28 29 29 23 23 23 25 27 27 27 28 29 31 32 33 34 35 36 37 39 41 42 45 46 48 47 49
12 10 10 5 3 10 12 16 10 7 6 6 6 9 9 8 7 8 19 22 23 28 26 27 26 25 27 26 27 29 29 28 29 32 35 35 34 33 35 37 38 40 42 43 43 44 45 48 50 49 51 51 50 50
9 11 7 8 7 4 9 20 4 8 7 5 5 6 7 7 6 9 25 23 31 29 26 24 25 27 29 30 32 29 29 31 32 33 34 37 37 37 38 38 39 41 45 46 47 47 49 50 53 53 54 56 57 58
Wind_Direction_850mb
67 81 82 98 139 175 170 173 180 168 165 165 158 156 168 180 172 166 168 123 88 100 112 120 116 104 84 90 137 156 110 40 78 163 161 173 201 207 125 156 168 156 151 188 100 141 259 149 107 166 226 33 158 224
64 67 107 131 137 162 170 161 179 173 165 163 154 156 158 159 179 170 166 168 107 112 123 109 114 132 136 105 125 126 51 95 130 175 146 119 174 169 164 212 286 177 187 174 185 213 220 193 26 184 107 105 96 290
56 64 68 172 170 175 186 191 173 172 165 172 167 160 165 162 162 174 165 152 138 95 102 121 113 121 126 150 151 116 103 114 93 97 119 127 118 123 183 232 97 249 207 179 107 204 181 199 211 197 159 125 65 6
192 133 98 136 177 179 176 184 186 183 187 185 182 175 166 170 155 155 157 150 137 119 104 92 151 139 129 113 134 170 152 137 108 68 70 118 157 103 359 69 150 211 138 167 280 218 63 78 219 213 168 236 323 326
125 130 87 103 146 173 180 183 183 189 178 187 194 190 178 187 167 156 154 151 151 107 137 121 137 128 155 135 96 128 161 149 138 115 88 144 96 110 29 41 251 197 171 185 170 69 104 145 67 67 75 84 18 341
77 105 83 82 100 132 163 158 163 183 193 186 179 185 178 180 173 156 124 178 163 119 102 84 110 94 157 155 160 138 136 131 133 130 144 141 165 155 135 202 253 204 196 186 177 170 189 107 29 26 281 266 278 323
56 72 84 109 74 96 132 169 167 165 189 173 167 168 174 167 168 159 141 168 171 152 92 77 14 94 135 144 137 158 165 107 79 100 97 143 144 164 106 185 248 236 195 149 138 159 177 189 200 229 235 245 268 280
76 52 71 129 109 91 115 138 177 134 134 142 156 147 147 152 155 148 118 150 154 128 105 102 50 68 153 114 106 120 111 118 91 98 119 128 130 114 258 243 212 176 176 188 186 180 133 119 107 96 89 49 24 17
112 82 76 91 105 116 123 123 150 161 137 129 129 133 125 138 108 134 144 158 172 134 137 111 144 204 165 122 122 112 129 55 78 99 248 147 280 220 220 218 201 168 143 167 169 155 124 335 340 345 338 338 342 339
173 134 105 81 64 90 139 145 130 151 152 141 135 99 94 124 127 120 106 64 134 193 177 141 142 155 162 103 60 97 66 145 166 244 145 116 252 239 222 215 222 216 250 227 198 238 275 288 305 308 305 306 302 303
182 171 139 82 84 78 127 180 162 169 154 153 129 78 129 125 86 61 72 72 42 2 196 178 159 132 157 111 154 126 160 26 127 252 148 260 262 244 233 235 228 221 217 225 254 273 280 283 284 281 276 276 278 281
172 186 186 226 270 332 344 231 207 192 123 139 134 132 126 122 76 86 304 333 84 225 173 138 138 122 138 148 106 158 134 58 213 167 134 264 247 280 119 155 195 220 230 238 246 251 255 262 269 275 281 285 287 287
113 177 226 271 293 294 276 251 206 197 187 135 114 144 151 96 48 121 205 290 292 192 175 160 104 115 121 115 74 89 95 205 102 94 219 229 289 136 124 127 125 140 173 203 221 235 245 257 269 278 287 294 297 299
185 208 269 299 307 305 286 249 217 190 187 148 145 131 138 201 231 181 186 188 206 189 164 141 105 122 118 71 140 105 237 73 70 82 236 244 164 159 141 152 172 182 213 226 232 243 263 279 288 292 297 299 299 298
137 142 334 331 336 325 330 191 178 168 165 148 134 138 186 172 108 104 187 167 176 157 153 111 86 123 106 109 84 103 54 202 199 220 228 340 160 175 178 165 172 212 241 235 224 219 223 256 269 278 289 297 303 307
96 4 352 359 4 50 113 129 136 143 76 80 60 99 83 80 1 70 71 121 141 159 129 119 117 104 138 124 101 204 131 206 233 213 133 149 145 148 148 151 162 212 240 263 277 277 273 273 276 287 294 298 300 300
33 5 1 39 46 95 129 123 119 65 66 72 33 64 83 83 91 25 49 79 155 163 153 108 94 201 89 74 186 185 195 221 52 103 118 138 151 177 203 226 246 260 269 273 276 277 279 281 283 284 285 288 293 297
355 349 22 101 115 104 107 91 89 77 58 39 66 23 66 72 67 41 33 83 155 114 111 170 123 94 164 158 261 239 91 94 114 122 42 133 167 208 243 260 264 265 268 272 273 274 276 278 282 286 288 290 294 296
56 78 109 128 110 86 77 48 45 92 72 68 59 55 67 74 66 49 64 96 93 106 110 69 78 181 214 330 303 8 15 7 280 255 280 260 271 311 309 300 292 287 283 282 282 285 287 289 291 291 292 294 295 297
75 113 124 108 72 67 73 46 49 68 60 54 32 39 54 56 64 59 59 96 103 74 47 40 83 180 219 320 311 309 332 328 322 314 270 266 269 288 298 297 297 295 291 292 294 293 293 295 298 299 298 296 295 295
97 104 110 76 50 58 75 54 61 64 83 82 43 45 51 49 48 43 25 33 60 41 66 54 29 347 324 332 325 320 308 301 303 297 293 281 277 292 293 295 295 294 293 295 295 297 302 304 305 302 300 297 295 294
83 78 65 49 64 66 64 42 63 57 58 65 43 33 39 32 19 5 5 44 57 33 18 348 340 324 305 296 292 300 308 313 313 309 304 302 300 290 288 292 288 287 290 297 303 309 320 330 332 331 325 316 308 301
57 42 54 39 73 50 44 37 55 29 63 25 47 54 33 18 6 2 66 50 57 13 2 358 348 332 310 290 281 283 285 291 297 297 297 298 300 296 293 292 289 289 297 305 314 322 325 322 317 314 317 317 313 311
64 51 31 40 29 37 23 34 36 33 51 32 36 28 358 344 354 53 52 15 2 352 355 353 351 340 334 313 292 295 299 300 306 303 297 295 300 292 288 286 288 293 299 306 307 306 299 298 304 312 314 311 308 306
64 12 23 6 16 25 27 12 1 28 47 335 53 17 348 344 58 60 163 316 335 340 341 342 338 336 330 320 317 316 305 303 305 305 298 288 292 291 288 288 288 291 296 303 301 296 298 300 302 302 300 299 298 296
64 16 34 353 359 40 327 23 20 355 338 20 356 311 320 1 61 325 262 338 350 348 340 336 333 321 309 305 305 307 304 306 306 305 302 294 294 300 297 291 291 293 293 298 301 299 295 296 295 291 290 290 290 290
53 346 13 23 7 344 26 19 3 51 40 20 327 343 7 59 331 298 331 349 341 340 337 331 328 322 317 311 303 304 303 301 302 303 298 295 293 292 290 293 292 292 296 298 298 298 298 296 292 292 292 290 289 289
67 26 29 341 16 21 114 38 38 30 281 331 302 7 105 183 243 337 337 340 341 343 341 336 331 324 319 315 312 306 303 304 305 305 304 298 294 291 289 290 292 292 291 288 288 291 294 296 296 294 294 294 293 291
25 356 354 357 4 29 41 79 316 1 337 318 152 274 272 271 333 355 357 357 354 351 348 346 342 341 336 336 329 323 318 313 310 309 305 301 297 296 299 297 295 295 295 294 292 292 291 289 288 290 290 290 290 286
2 356 7 6 48 350 355 354 339 329 322 300 294 295 291 281 346 359 1 1 2 352 344 341 337 335 332 327 325 321 321 318 312 312 316 315 309 304 300 297 295 293 292 292 290 287 287 289 289 290 293 294 293 292
347 351 326 315 275 340 339 333 332 328 318 301 297 285 294 303 267 291 351 348 347 351 346 341 337 331 333 331 328 324 321 312 312 308 305 304 301 298 295 294 293 292 291 290 290 290 289 288 289 290 290 291 293 293
332 345 345 328 319 325 335 344 319 314 300 302 298 317 320 304 287 317 340 343 343 342 339 337 339 338 333 330 326 323 321 318 311 308 308 307 306 303 298 296 294 292 292 291 291 291 291 291 292 292 293 293 294 294
309 332 323 307 304 326 333 339 321 327 264 267 273 298 316 301 282 330 336 337 343 345 344 339 336 335 331 329 329 323 320 320 318 314 311 308 307 305 301 299 296 293 292 293 294 293 293 293 293 294 294 294 295 295